Location: Sungai Bunut
(2.6333°N, 113.7333°E)
Time: 19:20:40
(UTC+00:00)

Vanguard 3 - Pass Details

Date: 09 December 2023
Orbit: 508 x 3239 km, 33.4° (Epoch: 24 February)

Event Time Altitude Azimuth Distance (km) Brightness Sun altitude
Rises 21:04:33 0° 302° (WNW) 2,753 - -17.8°
Reaches altitude 10° 21:06:52 10° 299° (WNW) 1,751 - -17.3°
Exits shadow 21:09:14 36° 289° (WNW) 804 6.6 -16.7°
Maximum altitude 21:10:33 70° 216° (SW) 538 6.1 -16.4°
Drops below altitude 10° 21:14:28 10° 131° (SE) 1,848 10.2 -15.5°
Sets 21:16:58 0° 129° (SE) 2,926 11.6 -15.0°
